[Date Prev][Date Next][Thread Prev][Thread Next] - [Date Index][Thread Index][Author Index]
2 Line ISS Keps 3-14
- Subject: [sarex] 2 Line ISS Keps 3-14
- From: "Dave Larsen PhD" <doc@xxxxxxxxxxx>
- Date: Sun, 14 Mar 2004 02:47:43 -0800
ISS
1 25544U 98067A 04074.29631944 .00018798 00000-0 17916-3 0 3706
2 25544 51.6285 89.0661 0010704 275.6524 275.4147 15.66773734303423
----
Via the sarex mailing list at AMSAT.ORG courtesy of AMSAT-NA.
To unsubscribe, send "unsubscribe sarex" to Majordomo@amsat.org
AMSAT Home